FW1232 Weather Reports


time (UTC)temp
C
wind
direction
speed
KPH
gust
KPH
rain 1hr
cm
rain 24hr
cm
rain mn
cm
humidity
%
barometer
mb
20210920064611 21 69 4.8 9.7 0.05 0.41 0.25 96 1018.0
20210920063122 21 63 6.4 16.1 0.13 0.41 0.25 95 1018.1
20210920061623 21 63 6.4 14.5 0.15 0.38 0.23 96 1018.3
20210920060235 21 88 4.8 12.9 0.15 0.38 0.23 95 1018.7
20210920054644 21 58 3.2 6.4 0.15 0.36 0.20 97 1018.5
20210920053215 21 53 1.6 6.4 0.08 0.28 0.13 97 1018.7
20210920051726 21 101 3.2 4.8 0.05 0.23 0.08 96 1018.5
20210920050130 22 0 0.0 4.8 0.08 0.23 0.08 96 1018.7
20210920044629 22 61 4.8 9.7 0.10 0.20 0.05 95 1018.6
20210920043119 22 63 4.8 8.0 0.18 0.20 0.05 96 1018.7
20210920041641 22 103 1.6 4.8 0.15 0.18 0.03 95 1018.7
20210920040202 22 82 3.2 9.7 0.13 0.15 0.00 95 1018.8
20210920034642 22 0 0.0 0.0 0.10 0.10 0.10 96 1018.9
20210920033136 22 0 0.0 4.8 0.03 0.03 0.03 95 1018.9
20210920031616 22 0 1.6 9.7 0.03 0.03 0.03 95 1018.6
20210920030143 22 74 1.6 6.4 0.03 0.03 0.03 95 1018.5
20210920024702 22 68 3.2 9.7 0.00 0.00 0.00 95 1018.5
20210920023130 22 0 4.8 8.0 0.00 0.00 0.00 95 1018.2
20210920021743 22 70 0.0 8.0 0.00 0.00 0.00 95 1018.2
20210920020116 22 68 4.8 11.3 0.00 0.00 0.00 94 1018.2
20210920014604 22 105 4.8 9.7 0.00 0.00 0.00 94 1018.4
20210920013238 22 121 4.8 11.3 0.00 0.00 0.00 94 1018.4
20210920011738 22 99 3.2 9.7 0.00 0.00 0.00 94 1018.3
20210920010132 22 70 3.2 11.3 0.00 0.00 0.00 94 1018.1
20210920004730 22 79 3.2 6.4 0.00 0.00 0.00 94 1018.0
20210920003228 22 76 6.4 12.9 0.00 0.00 0.00 94 1018.0
20210920001642 22 73 6.4 14.5 0.00 0.00 0.00 94 1018.0
20210920000116 22 113 1.6 4.8 0.00 0.00 0.00 95 1018.0
20210919234632 22 72 1.6 3.2 0.00 0.00 0.00 95 1018.0
20210919233057 22 0 0.0 0.0 0.00 0.00 0.00 94 1018.1
20210919231635 23 313 0.0 0.0 0.00 0.00 0.00 91 1018.0
20210919230212 23 313 0.0 4.8 0.00 0.00 0.00 90 1018.2
20210919224608 23 313 3.2 8.0 0.00 0.00 0.00 89 1018.3
20210919223100 23 311 4.8 8.0 0.00 0.00 0.00 90 1018.4
20210919221800 23 304 3.2 6.4 0.00 0.00 0.00 88 1018.6
20210919220126 23 273 4.8 11.3 0.00 0.00 0.00 88 1018.7
20210919214658 23 267 6.4 11.3 0.00 0.00 0.00 86 1018.6
20210919213136 24 269 1.6 6.4 0.00 0.00 0.00 87 1018.3
20210919211702 24 217 4.8 12.9 0.00 0.00 0.00 85 1018.1
20210919210210 24 246 3.2 12.9 0.00 0.00 0.00 85 1018.2
20210919204635 25 246 6.4 16.1 0.00 0.00 0.00 83 1018.3
20210919203246 24 250 6.4 14.5 0.00 0.00 0.00 83 1018.4
20210919201715 24 288 6.4 16.1 0.00 0.00 0.00 84 1018.6
20210919200142 25 209 8.0 16.1 0.00 0.00 0.00 87 1018.6
20210919194633 25 260 3.2 9.7 0.00 0.00 0.00 89 1018.7
20210919193143 25 248 1.6 9.7 0.00 0.00 0.00 87 1018.9
20210919191600 25 0 3.2 9.7 0.00 0.00 0.00 87 1019.1
20210919190251 25 0 1.6 4.8 0.00 0.00 0.00 86 1019.3
20210919184617 25 0 3.2 8.0 0.00 0.00 0.00 86 1019.5
20210919183138 25 0 0.0 0.0 0.00 0.00 0.00 85 1019.5
20210919181806 25 0 0.0 0.0 0.00 0.00 0.00 86 1019.7
20210919180218 25 0 0.0 0.0 0.00 0.00 0.00 86 1019.8
20210919174628 25 0 0.0 0.0 0.00 0.00 0.00 87 1020.1
20210919173137 25 0 1.6 6.4 0.00 0.00 0.00 86 1020.2
20210919171705 25 0 0.0 4.8 0.00 0.00 0.00 87 1020.3
20210919170159 24 0 0.0 0.0 0.00 0.00 0.00 87 1020.3
20210919164638 24 0 0.0 0.0 0.00 0.00 0.00 88 1020.4
20210919163221 23 0 0.0 0.0 0.00 0.00 0.00 91 1020.4
20210919161654 23 0 0.0 4.8 0.00 0.00 0.00 91 1020.4
20210919160117 23 62 1.6 4.8 0.00 0.00 0.00 91 1020.5
20210919154633 23 90 3.2 8.0 0.00 0.00 0.00 92 1020.4
20210919153237 23 44 4.8 6.4 0.00 0.00 0.00 92 1020.4
20210919151623 23 30 3.2 6.4 0.00 0.00 0.00 92 1020.4
20210919150212 23 103 0.0 4.8 0.00 0.00 0.00 92 1020.4
20210919144608 23 107 1.6 9.7 0.00 0.00 0.00 93 1020.3
20210919143142 22 69 0.0 4.8 0.00 0.00 0.00 94 1020.2
20210919141743 22 44 6.4 9.7 0.00 0.00 0.00 95 1020.2
20210919140115 22 90 1.6 9.7 0.00 0.00 0.00 95 1020.2
20210919134643 22 98 6.4 12.9 0.00 0.00 0.00 94 1020.1
20210919133307 22 42 4.8 12.9 0.00 0.00 0.00 96 1020.0
20210919131617 22 83 3.2 9.7 0.00 0.00 0.00 96 1020.1
20210919130123 22 78 6.4 9.7 0.00 0.00 0.00 96 1020.0
20210919124614 22 45 1.6 8.0 0.00 0.00 0.00 96 1020.0
20210919123230 22 15 4.8 11.3 0.00 0.00 0.00 97 1019.9
20210919121759 22 11 6.4 9.7 0.00 0.00 0.00 97 1019.9
20210919120217 22 26 1.6 4.8 0.00 0.00 0.00 97 1019.8
20210919114731 21 57 3.2 6.4 0.00 0.00 0.00 97 1019.9
20210919113150 21 73 0.0 4.8 0.00 0.00 0.00 98 1019.6
20210919111701 21 98 3.2 8.0 0.00 0.00 0.00 98 1019.3
20210919110249 21 55 3.2 8.0 0.00 0.00 0.00 99 1019.3
20210919104622 21 92 3.2 6.4 0.00 0.00 0.00 99 1019.4
20210919103132 21 133 3.2 6.4 0.00 0.00 0.00 99 1019.4
20210919101638 21 0 0.0 0.0 0.00 0.00 0.00 99 1019.3
20210919100104 21 144 0.0 0.0 0.00 0.00 0.00 99 1019.5
20210919094719 21 0 0.0 0.0 0.00 0.00 0.00 99 1019.3
20210919093119 21 0 0.0 0.0 0.00 0.00 0.00 99 1019.2
20210919091747 21 144 1.6 4.8 0.00 0.00 0.00 99 1019.1
20210919090128 21 155 1.6 6.4 0.00 0.00 0.00 99 1019.2
20210919084619 21 162 3.2 8.0 0.00 0.00 0.00 98 1019.2
20210919083145 21 0 1.6 6.4 0.00 0.00 0.00 99 1019.2
20210919081621 21 0 0.0 0.0 0.00 0.00 0.00 98 1019.1
20210919080201 21 0 0.0 4.8 0.00 0.00 0.00 98 1019.3
20210919074709 21 137 1.6 6.4 0.00 0.00 0.00 98 1019.5
20210919073111 21 142 1.6 6.4 0.00 0.00 0.00 98 1019.5
20210919071627 22 137 1.6 4.8 0.00 0.00 0.00 98 1019.5
20210919070212 22 82 3.2 6.4 0.00 0.00 0.00 98 1019.5